Regional Weather Roundup
Issued by NWS Wakefield, VA

Home | Current Version | Previous Version | Graphics & Text | Print | Product List | Glossary On
Versions: 1 2 3 4 5 6 7 8 9 10 11 12 13 14 15 16 17 18 19 20 21 22 23 24 25 26 27 28 29 30 31 32 33 34 35 36 37 38 39 40 41 42 43 44 45 46 47 48 49 50
000
ASUS41 KAKQ 212210
RWRAKQ

REGIONAL WEATHER ROUNDUP
NATIONAL WEATHER SERVICE WAKEFIELD VA
500 PM EST FRI NOV 21 2014

Note: "fair" indicates few or no clouds below 12,000 feet with no
significant weather and/or obstructions to visibility. * = Denotes
station may not report precipitation (e.g., rain,snow,etc.),
thunder or fog.

VAZ042-051-052>054-056-212300-
NORTHERN VIRGINIA

CITY           SKY/WX    TMP DP  RH WIND       PRES   REMARKS
WASH NATIONAL  CLEAR     37   6  27 NW12      30.52R
DULLES         CLEAR     32   7  35 NW7       30.50R
FORT BELVOIR   CLEAR     34   7  31 NW8       30.52R
QUANTICO       CLEAR     36   6  28 N5        30.53R
FREDERICKSBRG* CLEAR     37   8  29 CALM      30.51R
STAFFORD*      CLEAR     33   3  28 CALM      30.55R
WARRENTON      CLEAR     33  15  48 CALM      30.49R
CULPEPER*      CLEAR     36   7  30 CALM      30.50R
MANASSAS*      CLEAR     32  10  40 NW7       30.51R
LEESBURG*      CLEAR     32  12  43 NW5       30.50S
WINCHESTER     CLEAR     32   3  29 NW6       30.48R
FRONT ROYAL*   CLEAR     32   9  37 CALM      30.47R
LURAY*         CLEAR     34  10  37 CALM      30.46R
$$

VAZ048-049-060>072-079>083-212300-
CENTRAL AND SOUTH CENTRAL VIRGINIA

CITY           SKY/WX    TMP DP  RH WIND       PRES   REMARKS
RICHMOND       CLEAR     38   8  29 N3        30.50R
CHESTERFIELD*  CLEAR     37   7  28 NW6       30.50R
PETERSBURG*    CLEAR     39   6  25 W3        30.51R
HANOVER        CLEAR     35  14  42 CALM      30.51R
TAPPAHANNOCK*  CLEAR     36   2  24 CALM      30.52R
QUINTON*       FAIR      37   9  31 NW3       30.50R
CHARLOTTSVILLE CLEAR     37   4  25 CALM      30.46R
GORDONSVILLE*  CLEAR     33   8  34 CALM      30.47S
ORANGE*        CLEAR     36   9  32 CALM      30.49S
LOUISA*        CLEAR     32  12  43 CALM      30.47R
BUMPASS*       FAIR      35   8  32 CALM      30.49R
FARMVILLE*     CLEAR     39   8  27 CALM      30.47R
CREWE*         CLEAR     37  10  32 CALM      30.48R
FORT PICKETT*  CLEAR     37   9  31 CALM      30.48R
LUNENBURG*     CLEAR     37  16  42 CALM      30.47R
CHASE CITY*    FAIR      39  17  40 CALM      30.48R
CLARKSVILLE*   FAIR      39  10  30 CALM      30.47R
SOUTH HILL*    CLEAR     34  14  44 CALM      30.54R
LAWRENCEVILLE* CLEAR     37  16  42 CALM      30.48R
$$

VAZ088>098-212300-
SOUTHEAST VIRGINIA

CITY           SKY/WX    TMP DP  RH WIND       PRES   REMARKS
NORFOLK        CLEAR     39  11  31 NW7       30.50R
VIRGINIA BEACH CLEAR     38  17  42 N9        30.49R
NORFOLK NAVAL  CLEAR     41  11  29 N10       30.52R
WEST POINT*    CLEAR     39   4  23 CALM      30.53R
SALUDA*        FAIR      35   9  33 N6        30.51R
NEWPORT NEWS   CLEAR     39  13  34 N5        30.51R
LANGLEY AFB    CLEAR     37  13  36 NW7       30.51R
FORT EUSTIS    CLEAR     38  13  35 VRB2      30.49R
WILLIAMSBURG*  CLEAR     39  18  41 NW7       30.51R
HR EXEC AP*    CLEAR     37  12  35 N5        30.52R
FRANKLIN*      CLEAR     37  10  32 N6        30.50R
WAKEFIELD      CLEAR     38  11  32 CALM      30.50R
$$

VAZ020-022-025-037-045-212300-
WEST CENTRAL AND SOUTHWEST VIRGINIA

CITY           SKY/WX    TMP DP  RH WIND       PRES   REMARKS
STAUNTON*      CLEAR     35   4  27 E3        30.45R
WAYNESBORO*    CLEAR     35   3  26 CALM      30.41S
HOT SPRINGS VA CLEAR     26  -2  29 W10       30.29S WCI  16
LYNCHBURG      CLEAR     35   7  31 CALM      30.46R
DANVILLE       CLEAR     42  11  28 NE6       30.47R
SOUTH BOSTON*  CLEAR     40   4  22 CALM      30.48R
MARTINSVILLE   CLEAR     41  12  31 CALM      30.47R
ROANOKE        CLEAR     39   2  21 W7        30.46R
BLACKSBURG     CLEAR     36  10  35 CALM      30.43R
DUBLIN*        CLEAR     36   9  32 W5        30.43R
MARION*        CLEAR     38   6  27 W8        30.42R
HILLSVILLE*    CLEAR     37   1  21 W5        30.39R
RICHLANDS*     CLEAR     39   2  21 CALM      30.40R
WISE*          CLEAR     37   3  23 NE3       30.40S
ABINGDON*      CLEAR     42  11  29 SW5       30.42R
$$

MDZ021>025-VAZ099-100-212300-
SOUTHERN MARYLAND AND THE DELMARVA PENINSULA

CITY           SKY/WX    TMP DP  RH WIND       PRES   REMARKS
PATUXENT RIVER CLEAR     34   7  32 W10       30.51R
BAY BRIDGE APT   N/A     34   9  35 W13       30.51R WCI  25
LEONARDTOWN    NOT AVBL
DOVER          CLEAR     33   8  34 W8        30.46R
GEORGETOWN     CLEAR     34   8  33 W6        30.50R
EASTON         CLEAR     34  12  40 NW3       30.53R
CAMBRIDGE      CLEAR     36  10  35 W3        30.50R
SALISBURY      CLEAR     35   9  33 W7        30.50R
OCEAN CITY     CLEAR     32   7  35 NW5       30.50R
WALLOPS ISLAND CLEAR     32   8  36 N9        30.51R
ACCOMACK*      CLEAR     34  12  40 NW9       30.50R
$$

NCZ012>017-030>032-212300-
NORTH CENTRAL AND EASTERN NORTH CAROLINA

CITY           SKY/WX    TMP DP  RH WIND       PRES   REMARKS
ROANOKE RAPIDS CLEAR     39  14  35 N6        30.48R
RALEIGH        PTCLDY    42  13  30 N5        30.48R
ELIZABETH CITY CLEAR     42  16  34 N8        30.49R
AHOSKIE*       CLEAR     39  10  29 N5        30.50R
EDENTON*       CLEAR     41  14  32 N5        30.49R
CURRITUCK*     CLEAR     40   9  28 N7        30.50R
KILL DEVIL HLS CLEAR     39  17  41 NW3       30.47R
MANTEO         CLEAR     40  17  40 N9G16     30.49R
CAPE HATTERAS  CLEAR     40  22  48 N8G18     30.47R
TARBORO*       CLEAR     42  11  28 NW6       30.50R
GOLDSBORO      CLEAR     45  10  24 N8        30.46R
WASHINGTON     CLEAR     42  13  31 N5        30.48R
GREENVILLE     CLEAR     41  14  33 N6        30.48R
NEW BERN       CLEAR     47  15  27 N9        30.47R
WILMINGTON     CLEAR     50  19  29 N3        30.44R
$$

VAZ048-212300-
ELSEWHERE

CITY           SKY/WX    TMP DP  RH WIND       PRES   REMARKS
HARRISBURG PA  CLEAR     30   8  39 NW12      30.48R WCI  20
BALTIMORE      CLEAR     32   8  36 NW7       30.49R
ANNAPOLIS      CLEAR     34   8  33 W7        30.51R
ANDREWS AFB    CLEAR     33   5  31 NW6       30.49R
PHILADELPHIA   CLEAR     35   6  29 NW9       30.47R
WILDWOOD NJ*   CLEAR     34   9  35 NW6       30.46R
HENDERSON NC   CLEAR     39   7  27 CALM      30.47S
GREENSBORO     PTCLDY    42  11  28 NE8       30.43R
ROCKY MOUNT    CLEAR     42  11  28 N6        30.49R
$$

VAZ100-212300-
MARINE

STATION/POSITION TIME  TEMP    WIND        PRES    WAVE   SWELL
                       AIR SEA DIR/SP/G            HT/PER HT/PER
                 (UTC) (F)     (DEG/KT/KT) (MB)    (FT/S) (FT/S)
CAPE MAY NJ      2200   35 42  310/ 10/ 14 1031.4R
LEWES DE         2200   35 45  290/ 12/ 15 1031.9R
15NM E FENWICK I 2200   36 54              1031.3R   4/ 5
OCEAN-CITY-INLET 2200   35 46  330/  9/ 12 1032.1R
WACHAPREAGUE VA  2200   35 42  330/  5/ 10 1033.0R
THOMAS POINT MD  2200   35 48  320/ 12/ 14 1034.1R
GOOSES REEF MD   2200   37     310/ 14/ 19 1033.1R
COVE POINT MD    2200   35     320/  9/ 12 1032.8R
SOLOMONS ISLAND  2200      48                N/A
BISHOPS HEAD MD  2200   33 40  350/  5/  7 1032.5R
PINEY POINT MD   2200          340/ 13/ 15   N/A
POTOMAC MD       2200   37     340/ 14/ 16 1032.2F
CAMBRIDGE MD     2200   36 42  290/  5/ 11 1032.6R
LEWISETTA VA     2200   36 44  330/  7/ 11 1032.8S
RAPPAHANNOCK LGT 2200          330/ 15/ 17 1033.4R
STINGRAY PT      2200   38     340/ 12/ 16 1033.2R
YORK RVR RNG VA  2200   39      10/ 12/ 15 1032.4R
YORKTOWN VA      2200   39 51  350/ 11/ 12 1032.5R
JAMESTOWN VA     2200   40     350/ 12/ 14   N/A
DOMINION TERM VA 2200   41      40/  3/  7 1032.5R
KIPTOPEKE VA     2200      52   20/  5/ 15   N/A
CHES BAY BRIDGE  2200   39 51  350/ 13/ 16 1032.3R
CAPE HENRY VA    2200   39     330/ 14/ 21 1031.3R
CHESAPEAKE LGHT  2100   39     340/ 21/ 26 1032.1
WILLOUBY STN VA  2200   40     360/ 10/ 12 1031.3R
S CRANEY ISL VA  2200          320/  7/ 11 1032.6R
CAPE HENRY BUOY  2200      55                N/A     5/ 6
1ST LANDING BUOY 2200   40     350/ 14/ 17 1032.3R
CAPE CHARLES BUO 2200      54                N/A     4/ 5   2/ 7
64NM E OF VA BCH 2200   41 61  350/ 23/ 29 1030.8R   9/ 8
DUCK PIER NC     2200   41 55  330/ 15/ 19 1031.2R
44100 DUCK FRF   2200      58                N/A     6/ 7
44056 DUCK FRF   2200      56                N/A     5/ 7
OREGON INLET NC  2200   41 49  330/  9/ 15 1031.9R
HATTERAS NC      2200   44 52   10/ 18/ 20 1031.8R
DIAMOND SHLS NC  2200   46     340/ 16/ 19 1031.5R   5/ 6   2/11


USA.gov is the U.S. government's official web portal to all federal, state and local government web resources and services.